Time,TemperatureF,DewpointF,PressureIn,WindDirection,WindDirectionDegrees,WindSpeedMPH,WindSpeedGustMPH,Humidity,HourlyPrecipIn,Conditions,Clouds,dailyrainin,SoftwareType,DateUTC
2013-06-14 00:00:00,72.1,65.2,29.79,East,101,1.0,5.0,79,0.00,,OVC110,0.00,VWS V14.01,2013-06-14 05:00:00,
2013-06-14 00:04:00,72.1,65.2,29.79,ESE,103,0.0,2.0,79,0.00,,CLR,0.00,VWS V14.01,2013-06-14 05:04:00,
2013-06-14 00:09:00,72.0,65.1,29.79,East,91,0.0,2.0,79,0.00,,CLR,0.00,VWS V14.01,2013-06-14 05:09:00,
2013-06-14 00:14:00,71.9,65.4,29.78,East,91,0.0,2.0,80,0.00,,CLR,0.00,VWS V14.01,2013-06-14 05:14:00,
2013-06-14 00:19:00,71.7,65.2,29.78,East,91,0.0,2.0,80,0.00,,CLR,0.00,VWS V14.01,2013-06-14 05:19:00,
2013-06-14 00:24:00,71.6,65.1,29.79,East,91,0.0,2.0,80,0.00,,CLR,0.00,VWS V14.01,2013-06-14 05:24:00,
2013-06-14 00:29:00,71.4,65.3,29.78,ESE,114,0.0,2.0,81,0.00,,CLR,0.00,VWS V14.01,2013-06-14 05:29:00,
2013-06-14 00:30:00,71.4,65.3,29.78,ESE,114,0.0,2.0,81,0.00,,OVC110,0.00,VWS V14.01,2013-06-14 05:30:00,
2013-06-14 00:34:00,71.2,65.1,29.78,ESE,114,0.0,0.0,81,0.00,,CLR,0.00,VWS V14.01,2013-06-14 05:34:00,
2013-06-14 00:39:00,71.0,64.9,29.78,ESE,114,0.0,0.0,81,0.00,,CLR,0.00,VWS V14.01,2013-06-14 05:39:00,
2013-06-14 00:44:00,70.8,65.0,29.79,ESE,114,0.0,0.0,82,0.00,,CLR,0.00,VWS V14.01,2013-06-14 05:44:00,
2013-06-14 00:49:00,70.6,64.8,29.79,ESE,114,0.0,0.0,82,0.00,,CLR,0.00,VWS V14.01,2013-06-14 05:49:00,
2013-06-14 00:54:00,70.4,64.7,29.79,ESE,114,0.0,0.0,82,0.00,,CLR,0.00,VWS V14.01,2013-06-14 05:54:00,
2013-06-14 00:59:00,70.2,64.8,29.79,ESE,114,0.0,0.0,83,0.00,,CLR,0.00,VWS V14.01,2013-06-14 05:59:00,
2013-06-14 01:00:00,70.2,64.8,29.79,ESE,114,0.0,0.0,83,0.00,,OVC110,0.00,VWS V14.01,2013-06-14 06:00:00,
2013-06-14 01:05:00,70.1,64.7,29.79,SE,126,0.0,0.0,83,0.00,,CLR,0.00,VWS V14.01,2013-06-14 06:05:00,
2013-06-14 01:10:00,70.0,64.6,29.79,SSE,157,0.0,0.0,83,0.00,,CLR,0.00,VWS V14.01,2013-06-14 06:10:00,
2013-06-14 01:15:00,70.1,64.7,29.78,SSE,157,0.0,1.0,83,0.00,,CLR,0.00,VWS V14.01,2013-06-14 06:15:00,
2013-06-14 01:20:00,70.3,64.6,29.78,SSE,157,0.0,1.0,82,0.00,,CLR,0.00,VWS V14.01,2013-06-14 06:20:00,
2013-06-14 01:25:00,70.5,64.8,29.79,SSE,157,0.0,1.0,82,0.00,,CLR,0.00,VWS V14.01,2013-06-14 06:25:00,
2013-06-14 01:30:00,70.4,64.7,29.79,SSE,157,0.0,0.0,82,0.00,,CLR,0.00,VWS V14.01,2013-06-14 06:30:00,
2013-06-14 01:35:00,70.4,64.7,29.80,SSE,157,0.0,0.0,82,0.00,,CLR,0.00,VWS V14.01,2013-06-14 06:35:00,
2013-06-14 01:40:00,70.3,64.6,29.80,SSE,157,0.0,0.0,82,0.00,,CLR,0.00,VWS V14.01,2013-06-14 06:40:00,
2013-06-14 01:45:00,70.1,64.7,29.81,SSE,157,0.0,0.0,83,0.00,,CLR,0.00,VWS V14.01,2013-06-14 06:45:00,
2013-06-14 01:50:00,69.9,64.8,29.81,SSE,157,0.0,0.0,84,0.00,,CLR,0.00,VWS V14.01,2013-06-14 06:50:00,
2013-06-14 01:55:00,69.7,64.7,29.81,SSE,157,0.0,0.0,84,0.00,,CLR,0.00,VWS V14.01,2013-06-14 06:55:00,
2013-06-14 02:00:00,69.4,64.4,29.81,SSE,157,0.0,0.0,84,0.00,,CLR,0.00,VWS V14.01,2013-06-14 07:00:00,
2013-06-14 02:06:00,69.1,64.4,29.81,SSE,157,0.0,0.0,85,0.00,,CLR,0.00,VWS V14.01,2013-06-14 07:06:00,
2013-06-14 02:11:00,68.9,64.2,29.81,SSE,157,0.0,0.0,85,0.00,,CLR,0.00,VWS V14.01,2013-06-14 07:11:00,
2013-06-14 02:16:00,68.7,64.0,29.81,SSE,157,0.0,0.0,85,0.00,,CLR,0.00,VWS V14.01,2013-06-14 07:16:00,
2013-06-14 02:21:00,68.5,64.2,29.81,SSE,157,0.0,0.0,86,0.00,,CLR,0.00,VWS V14.01,2013-06-14 07:21:00,
2013-06-14 02:26:00,68.3,64.0,29.81,SSE,157,0.0,0.0,86,0.00,,CLR,0.00,VWS V14.01,2013-06-14 07:26:00,
2013-06-14 02:30:00,68.1,64.1,29.81,SSE,157,0.0,0.0,87,0.00,,OVC110,0.00,VWS V14.01,2013-06-14 07:30:00,
2013-06-14 02:31:00,68.1,64.1,29.81,SSE,157,0.0,0.0,87,0.00,,CLR,0.00,VWS V14.01,2013-06-14 07:31:00,
2013-06-14 02:36:00,68.0,64.3,29.81,West,277,0.0,1.0,88,0.00,,CLR,0.00,VWS V14.01,2013-06-14 07:36:00,
2013-06-14 02:41:00,67.9,63.9,29.81,WNW,293,0.0,1.0,87,0.00,,CLR,0.00,VWS V14.01,2013-06-14 07:41:00,
2013-06-14 02:46:00,67.8,64.1,29.81,WNW,293,0.0,1.0,88,0.00,,CLR,0.00,VWS V14.01,2013-06-14 07:46:00,
2013-06-14 02:51:00,67.7,64.0,29.82,WNW,293,0.0,1.0,88,0.00,,CLR,0.00,VWS V14.01,2013-06-14 07:51:00,
2013-06-14 02:56:00,67.7,64.0,29.82,WNW,296,0.0,1.0,88,0.00,,CLR,0.00,VWS V14.01,2013-06-14 07:56:00,
2013-06-14 03:00:00,67.7,64.0,29.82,WNW,296,0.0,1.0,88,0.00,,OVC110,0.00,VWS V14.01,2013-06-14 08:00:00,
2013-06-14 03:01:00,67.7,64.0,29.82,NW,311,1.0,1.0,88,0.00,,CLR,0.00,VWS V14.01,2013-06-14 08:01:00,
2013-06-14 03:06:00,67.8,64.4,29.81,NW,318,0.0,1.0,89,0.00,,CLR,0.00,VWS V14.01,2013-06-14 08:06:00,
2013-06-14 03:11:00,67.8,64.4,29.82,NNE,32,0.0,1.0,89,0.00,,CLR,0.00,VWS V14.01,2013-06-14 08:11:00,
2013-06-14 03:17:00,67.8,64.4,29.82,NNE,32,0.0,1.0,89,0.00,,CLR,0.00,VWS V14.01,2013-06-14 08:17:00,
2013-06-14 03:22:00,67.7,64.3,29.82,NNE,32,0.0,1.0,89,0.00,,CLR,0.00,VWS V14.01,2013-06-14 08:22:00,
2013-06-14 03:27:00,67.7,64.3,29.82,NNE,32,0.0,1.0,89,0.00,,CLR,0.00,VWS V14.01,2013-06-14 08:27:00,
2013-06-14 03:30:00,67.6,64.2,29.81,NNE,32,0.0,1.0,89,0.00,,OVC110,0.00,VWS V14.01,2013-06-14 08:30:00,
2013-06-14 03:32:00,67.6,64.2,29.81,NNE,32,0.0,0.0,89,0.00,,CLR,0.00,VWS V14.01,2013-06-14 08:32:00,
2013-06-14 03:37:00,67.4,64.1,29.81,NNE,32,0.0,0.0,89,0.00,,CLR,0.00,VWS V14.01,2013-06-14 08:37:00,
2013-06-14 03:42:00,67.3,64.0,29.81,NNE,32,0.0,0.0,89,0.00,,CLR,0.00,VWS V14.01,2013-06-14 08:42:00,
2013-06-14 03:47:00,67.2,63.8,29.81,NNE,32,0.0,0.0,89,0.00,,CLR,0.00,VWS V14.01,2013-06-14 08:47:00,
2013-06-14 03:52:00,67.1,64.1,29.81,NNE,32,0.0,0.0,90,0.00,,CLR,0.00,VWS V14.01,2013-06-14 08:52:00,
2013-06-14 03:57:00,67.0,64.0,29.81,NNE,32,0.0,0.0,90,0.00,,CLR,0.00,VWS V14.01,2013-06-14 08:57:00,
2013-06-14 04:00:00,66.9,63.9,29.81,NNE,32,0.0,0.0,90,0.00,,OVC110,0.00,VWS V14.01,2013-06-14 09:00:00,
2013-06-14 04:02:00,66.9,63.9,29.81,NNE,32,0.0,0.0,90,0.00,,CLR,0.00,VWS V14.01,2013-06-14 09:02:00,
2013-06-14 04:07:00,66.8,63.8,29.82,NNE,32,0.0,0.0,90,0.00,,CLR,0.00,VWS V14.01,2013-06-14 09:07:00,
2013-06-14 04:12:00,66.7,63.7,29.82,NNE,32,0.0,0.0,90,0.00,,CLR,0.00,VWS V14.01,2013-06-14 09:12:00,
2013-06-14 04:17:00,66.6,63.6,29.82,NNE,32,0.0,0.0,90,0.00,,CLR,0.00,VWS V14.01,2013-06-14 09:17:00,
2013-06-14 04:23:00,66.5,63.8,29.82,NNE,32,0.0,0.0,91,0.00,,CLR,0.00,VWS V14.01,2013-06-14 09:23:00,
2013-06-14 04:28:00,66.4,63.7,29.82,NNE,32,0.0,0.0,91,0.00,,CLR,0.00,VWS V14.01,2013-06-14 09:28:00,
2013-06-14 04:30:00,66.4,63.7,29.82,NNE,32,0.0,0.0,91,0.00,,OVC110,0.00,VWS V14.01,2013-06-14 09:30:00,
2013-06-14 04:33:00,66.3,63.6,29.82,NNE,32,0.0,0.0,91,0.00,,CLR,0.00,VWS V14.01,2013-06-14 09:33:00,
2013-06-14 04:38:00,66.2,63.5,29.82,NNE,32,0.0,0.0,91,0.00,,CLR,0.00,VWS V14.01,2013-06-14 09:38:00,
2013-06-14 04:43:00,66.2,63.5,29.83,NNE,32,0.0,0.0,91,0.00,,CLR,0.00,VWS V14.01,2013-06-14 09:43:00,
2013-06-14 04:48:00,66.1,63.4,29.83,NNE,32,0.0,0.0,91,0.00,,CLR,0.00,VWS V14.01,2013-06-14 09:48:00,
2013-06-14 04:53:00,66.1,63.7,29.83,NNE,32,0.0,0.0,92,0.00,,CLR,0.00,VWS V14.01,2013-06-14 09:53:00,
2013-06-14 04:58:00,66.1,63.4,29.83,NNE,32,0.0,0.0,91,0.00,,CLR,0.00,VWS V14.01,2013-06-14 09:58:00,
2013-06-14 05:00:00,66.1,63.4,29.83,NNE,32,0.0,0.0,91,0.00,,OVC110,0.00,VWS V14.01,2013-06-14 10:00:00,
2013-06-14 05:03:00,66.1,63.4,29.83,NNE,32,0.0,0.0,91,0.00,,CLR,0.00,VWS V14.01,2013-06-14 10:03:00,
2013-06-14 05:08:00,66.0,63.6,29.83,NNE,32,0.0,0.0,92,0.00,,CLR,0.00,VWS V14.01,2013-06-14 10:08:00,
2013-06-14 05:13:00,66.0,63.3,29.83,NNE,32,0.0,0.0,91,0.00,,CLR,0.00,VWS V14.01,2013-06-14 10:13:00,
2013-06-14 05:18:00,65.9,63.2,29.83,NNE,32,0.0,0.0,91,0.00,,CLR,0.00,VWS V14.01,2013-06-14 10:18:00,
2013-06-14 05:23:00,65.8,63.4,29.83,NNE,32,0.0,0.0,92,0.00,,CLR,0.00,VWS V14.01,2013-06-14 10:23:00,
2013-06-14 05:29:00,65.7,63.3,29.83,NNE,32,0.0,0.0,92,0.00,,CLR,0.00,VWS V14.01,2013-06-14 10:29:00,
2013-06-14 05:30:00,65.7,63.3,29.83,NNE,32,0.0,0.0,92,0.00,,OVC110,0.00,VWS V14.01,2013-06-14 10:30:00,
2013-06-14 05:34:00,65.7,63.3,29.83,NNE,32,0.0,0.0,92,0.00,,CLR,0.00,VWS V14.01,2013-06-14 10:34:00,
2013-06-14 05:39:00,65.6,63.5,29.83,NNE,32,0.0,0.0,93,0.00,,CLR,0.00,VWS V14.01,2013-06-14 10:39:00,
2013-06-14 05:44:00,65.6,63.5,29.83,NNE,32,0.0,0.0,93,0.00,,CLR,0.00,VWS V14.01,2013-06-14 10:44:00,
2013-06-14 05:49:00,65.5,63.4,29.83,NNE,31,0.0,0.0,93,0.00,,CLR,0.00,VWS V14.01,2013-06-14 10:49:00,
2013-06-14 05:54:00,65.4,63.3,29.83,NNE,31,0.0,0.0,93,0.00,,CLR,0.00,VWS V14.01,2013-06-14 10:54:00,
2013-06-14 05:59:00,65.3,63.2,29.83,NNE,31,0.0,0.0,93,0.00,,CLR,0.00,VWS V14.01,2013-06-14 10:59:00,
2013-06-14 06:00:00,65.3,63.2,29.83,NNE,31,0.0,0.0,93,0.00,,OVC110,0.00,VWS V14.01,2013-06-14 11:00:00,
2013-06-14 06:04:00,65.3,63.2,29.83,NNE,31,0.0,0.0,93,0.00,,CLR,0.00,VWS V14.01,2013-06-14 11:04:00,
2013-06-14 06:09:00,65.2,63.1,29.83,NNE,31,0.0,0.0,93,0.00,,CLR,0.00,VWS V14.01,2013-06-14 11:09:00,
2013-06-14 06:14:00,65.1,63.0,29.84,NNE,31,0.0,0.0,93,0.00,,CLR,0.00,VWS V14.01,2013-06-14 11:14:00,
2013-06-14 06:19:00,65.0,62.9,29.84,NNE,31,0.0,0.0,93,0.00,,CLR,0.00,VWS V14.01,2013-06-14 11:19:00,
2013-06-14 06:24:00,64.9,62.8,29.84,NNE,31,0.0,0.0,93,0.00,,CLR,0.00,VWS V14.01,2013-06-14 11:24:00,
2013-06-14 06:29:00,64.9,62.8,29.84,NNE,31,0.0,0.0,93,0.00,,CLR,0.00,VWS V14.01,2013-06-14 11:29:00,
2013-06-14 06:30:00,64.9,62.8,29.84,NNE,31,0.0,0.0,93,0.00,,OVC110,0.00,VWS V14.01,2013-06-14 11:30:00,
2013-06-14 06:35:00,64.9,63.1,29.84,NNE,31,0.0,0.0,94,0.00,,CLR,0.00,VWS V14.01,2013-06-14 11:35:00,
2013-06-14 06:40:00,64.9,63.1,29.84,NNE,31,0.0,0.0,94,0.00,,CLR,0.00,VWS V14.01,2013-06-14 11:40:00,
2013-06-14 06:45:00,65.0,63.2,29.84,NNE,31,0.0,0.0,94,0.00,,CLR,0.00,VWS V14.01,2013-06-14 11:45:00,
2013-06-14 06:50:00,65.0,63.2,29.84,NNE,31,0.0,0.0,94,0.00,,CLR,0.00,VWS V14.01,2013-06-14 11:50:00,
2013-06-14 06:55:00,65.2,63.4,29.85,NNE,31,0.0,0.0,94,0.00,,CLR,0.00,VWS V14.01,2013-06-14 11:55:00,
2013-06-14 07:00:00,65.3,63.5,29.85,NNE,31,0.0,0.0,94,0.00,,CLR,0.00,VWS V14.01,2013-06-14 12:00:00,
2013-06-14 07:05:00,65.5,63.7,29.85,NNE,31,0.0,0.0,94,0.00,,CLR,0.00,VWS V14.01,2013-06-14 12:05:00,
2013-06-14 07:10:00,65.7,63.9,29.85,NNE,31,0.0,0.0,94,0.00,,CLR,0.00,VWS V14.01,2013-06-14 12:10:00,
2013-06-14 07:15:00,65.9,64.1,29.85,NNE,31,0.0,0.0,94,0.00,,CLR,0.00,VWS V14.01,2013-06-14 12:15:00,
2013-06-14 07:20:00,66.2,64.4,29.85,NNE,31,0.0,0.0,94,0.00,,CLR,0.00,VWS V14.01,2013-06-14 12:20:00,
2013-06-14 07:25:00,66.5,64.7,29.85,NNE,31,0.0,0.0,94,0.00,,CLR,0.00,VWS V14.01,2013-06-14 12:25:00,
2013-06-14 07:30:00,66.7,64.9,29.85,NNE,32,0.0,0.0,94,0.00,,OVC110,0.00,VWS V14.01,2013-06-14 12:30:00,
2013-06-14 07:31:00,66.8,65.0,29.86,NNE,31,0.0,0.0,94,0.00,,CLR,0.00,VWS V14.01,2013-06-14 12:31:00,
2013-06-14 07:36:00,67.1,65.3,29.86,NNE,31,0.0,0.0,94,0.00,,CLR,0.00,VWS V14.01,2013-06-14 12:36:00,
2013-06-14 07:41:00,67.5,65.4,29.86,NNE,31,0.0,0.0,93,0.00,,CLR,0.00,VWS V14.01,2013-06-14 12:41:00,
2013-06-14 07:46:00,67.9,65.8,29.86,NNE,31,0.0,0.0,93,0.00,,CLR,0.00,VWS V14.01,2013-06-14 12:46:00,
2013-06-14 07:51:00,68.5,66.1,29.86,NNE,31,0.0,0.0,92,0.00,,CLR,0.00,VWS V14.01,2013-06-14 12:51:00,
2013-06-14 07:56:00,69.0,66.6,29.86,SSE,147,0.0,0.0,92,0.00,,CLR,0.00,VWS V14.01,2013-06-14 12:56:00,
2013-06-14 08:00:00,69.4,66.7,29.86,SSE,147,0.0,0.0,91,0.00,,OVC110,0.00,VWS V14.01,2013-06-14 13:00:00,
2013-06-14 08:01:00,69.5,66.1,29.86,SSE,150,0.0,0.0,89,0.00,,CLR,0.00,VWS V14.01,2013-06-14 13:01:00,
2013-06-14 08:06:00,70.0,66.6,29.86,South,178,0.0,1.0,89,0.00,,CLR,0.00,VWS V14.01,2013-06-14 13:06:00,
2013-06-14 08:11:00,70.4,66.7,29.87,South,178,0.0,1.0,88,0.00,,CLR,0.00,VWS V14.01,2013-06-14 13:11:00,
2013-06-14 08:16:00,70.8,66.7,29.87,South,178,0.0,1.0,87,0.00,,CLR,0.00,VWS V14.01,2013-06-14 13:16:00,
2013-06-14 08:21:00,71.2,67.1,29.87,South,178,0.0,1.0,87,0.00,,CLR,0.00,VWS V14.01,2013-06-14 13:21:00,
2013-06-14 08:27:00,71.5,66.8,29.87,SSE,148,0.0,1.0,85,0.00,,CLR,0.00,VWS V14.01,2013-06-14 13:27:00,
2013-06-14 08:30:00,71.7,66.6,29.87,SSE,148,0.0,1.0,84,0.00,,OVC110,0.00,VWS V14.01,2013-06-14 13:30:00,
2013-06-14 08:32:00,71.8,67.1,29.87,SE,142,0.0,2.0,85,0.00,,CLR,0.00,VWS V14.01,2013-06-14 13:32:00,
2013-06-14 08:37:00,72.0,67.2,29.87,ESE,103,0.0,2.0,85,0.00,,CLR,0.00,VWS V14.01,2013-06-14 13:37:00,
2013-06-14 08:42:00,72.3,67.2,29.87,ESE,108,0.0,2.0,84,0.00,,CLR,0.00,VWS V14.01,2013-06-14 13:42:00,
2013-06-14 08:47:00,72.6,67.5,29.87,ESE,114,0.0,2.0,84,0.00,,CLR,0.00,VWS V14.01,2013-06-14 13:47:00,
2013-06-14 08:52:00,72.9,67.8,29.87,ESE,110,0.0,2.0,84,0.00,,CLR,0.00,VWS V14.01,2013-06-14 13:52:00,
2013-06-14 08:57:00,73.3,67.5,29.87,SE,140,1.0,2.0,82,0.00,,CLR,0.00,VWS V14.01,2013-06-14 13:57:00,
2013-06-14 09:00:00,73.5,67.7,29.87,SE,130,0.0,2.0,82,0.00,,OVC110,0.00,VWS V14.01,2013-06-14 14:00:00,
2013-06-14 09:02:00,73.7,67.9,29.87,SSE,160,0.0,1.0,82,0.00,,CLR,0.00,VWS V14.01,2013-06-14 14:02:00,
2013-06-14 09:07:00,74.2,67.6,29.87,ESE,111,0.0,2.0,80,0.00,,CLR,0.00,VWS V14.01,2013-06-14 14:07:00,
2013-06-14 09:12:00,74.5,68.3,29.87,ESE,114,0.0,2.0,81,0.00,,CLR,0.00,VWS V14.01,2013-06-14 14:12:00,
2013-06-14 09:17:00,75.0,68.1,29.87,SE,128,0.0,2.0,79,0.00,,CLR,0.00,VWS V14.01,2013-06-14 14:17:00,
2013-06-14 09:23:00,75.5,67.4,29.86,ESE,117,1.0,3.0,76,0.00,,CLR,0.00,VWS V14.01,2013-06-14 14:23:00,
2013-06-14 09:28:00,76.0,67.9,29.86,South,171,0.0,3.0,76,0.00,,CLR,0.00,VWS V14.01,2013-06-14 14:28:00,
2013-06-14 09:30:00,76.2,67.7,29.86,SSE,157,1.0,3.0,75,0.00,,OVC110,0.00,VWS V14.01,2013-06-14 14:30:00,
2013-06-14 09:33:00,76.4,67.1,29.86,SE,132,0.0,4.0,73,0.00,,CLR,0.00,VWS V14.01,2013-06-14 14:33:00,
2013-06-14 09:38:00,76.8,68.7,29.86,SSE,154,0.0,4.0,76,0.00,,CLR,0.00,VWS V14.01,2013-06-14 14:38:00,
2013-06-14 09:43:00,77.1,69.0,29.87,ESE,106,0.0,4.0,76,0.00,,CLR,0.00,VWS V14.01,2013-06-14 14:43:00,
2013-06-14 09:48:00,77.6,68.3,29.87,South,175,0.0,4.0,73,0.00,,CLR,0.00,VWS V14.01,2013-06-14 14:48:00,
2013-06-14 09:53:00,78.1,67.9,29.87,SSE,167,0.0,4.0,71,0.00,,CLR,0.00,VWS V14.01,2013-06-14 14:53:00,
2013-06-14 09:58:00,78.5,67.5,29.87,ESE,109,1.0,4.0,69,0.00,,CLR,0.00,VWS V14.01,2013-06-14 14:58:00,
2013-06-14 10:00:00,78.6,67.6,29.87,ESE,103,0.0,4.0,69,0.00,,OVC110,0.00,VWS V14.01,2013-06-14 15:00:00,
2013-06-14 10:03:00,79.0,68.4,29.86,SSE,166,2.0,2.0,70,0.00,,CLR,0.00,VWS V14.01,2013-06-14 15:03:00,
2013-06-14 10:08:00,79.0,66.7,29.86,SSE,167,2.0,2.0,66,0.00,,CLR,0.00,VWS V14.01,2013-06-14 15:08:00,
2013-06-14 10:13:00,79.2,66.4,29.87,SSE,164,0.0,2.0,65,0.00,,CLR,0.00,VWS V14.01,2013-06-14 15:13:00,
2013-06-14 10:18:00,79.2,66.4,29.87,SSE,165,1.0,2.0,65,0.00,,CLR,0.00,VWS V14.01,2013-06-14 15:18:00,
2013-06-14 10:24:00,79.5,66.7,29.87,South,188,1.0,2.0,65,0.00,,CLR,0.00,VWS V14.01,2013-06-14 15:24:00,
2013-06-14 10:29:00,79.6,65.9,29.87,SSE,166,1.0,2.0,63,0.00,,CLR,0.00,VWS V14.01,2013-06-14 15:29:00,
2013-06-14 10:30:00,79.5,65.8,29.87,SE,144,0.0,2.0,63,0.00,,OVC110,0.00,VWS V14.01,2013-06-14 15:30:00,
2013-06-14 10:34:00,79.5,66.3,29.87,ESE,109,2.0,3.0,64,0.00,,CLR,0.00,VWS V14.01,2013-06-14 15:34:00,
2013-06-14 10:39:00,79.8,66.6,29.87,SE,130,0.0,3.0,64,0.00,,CLR,0.00,VWS V14.01,2013-06-14 15:39:00,
2013-06-14 10:44:00,80.0,65.4,29.87,SE,132,0.0,5.0,61,0.00,,CLR,0.00,VWS V14.01,2013-06-14 15:44:00,
2013-06-14 10:49:00,80.0,66.3,29.87,South,178,0.0,5.0,63,0.00,,CLR,0.00,VWS V14.01,2013-06-14 15:49:00,
2013-06-14 10:54:00,80.2,67.4,29.87,SSW,192,0.0,5.0,65,0.00,,CLR,0.00,VWS V14.01,2013-06-14 15:54:00,
2013-06-14 10:59:00,80.6,67.8,29.87,ESE,106,1.0,5.0,65,0.00,,CLR,0.00,VWS V14.01,2013-06-14 15:59:00,
2013-06-14 11:00:00,80.7,67.8,29.87,ESE,118,2.0,5.0,65,0.00,,OVC110,0.00,VWS V14.01,2013-06-14 16:00:00,
2013-06-14 11:04:00,81.1,67.8,29.87,ESE,108,0.0,3.0,64,0.00,,CLR,0.00,VWS V14.01,2013-06-14 16:04:00,
2013-06-14 11:09:00,81.2,67.9,29.87,ESE,115,1.0,4.0,64,0.00,,CLR,0.00,VWS V14.01,2013-06-14 16:09:00,
2013-06-14 11:14:00,81.2,66.5,29.87,SSW,196,0.0,4.0,61,0.00,,CLR,0.00,VWS V14.01,2013-06-14 16:14:00,
2013-06-14 11:19:00,81.1,67.8,29.87,SE,133,1.0,4.0,64,0.00,,CLR,0.00,VWS V14.01,2013-06-14 16:19:00,
2013-06-14 11:24:00,81.2,67.4,29.86,SSW,200,3.0,5.0,63,0.00,,CLR,0.00,VWS V14.01,2013-06-14 16:24:00,
2013-06-14 11:30:00,81.1,67.3,29.86,ESE,115,1.0,1.0,63,0.00,,CLR,0.00,VWS V14.01,2013-06-14 16:30:00,
2013-06-14 11:35:00,81.2,66.9,29.86,SSW,193,1.0,7.0,62,0.00,,CLR,0.00,VWS V14.01,2013-06-14 16:35:00,
2013-06-14 11:40:00,81.2,67.4,29.86,South,182,1.0,7.0,63,0.00,,CLR,0.00,VWS V14.01,2013-06-14 16:40:00,
2013-06-14 11:45:00,81.3,67.1,29.86,SE,138,2.0,7.0,62,0.00,,CLR,0.00,VWS V14.01,2013-06-14 16:45:00,
2013-06-14 11:50:00,81.5,66.8,29.86,ESE,113,1.0,7.0,61,0.00,,CLR,0.00,VWS V14.01,2013-06-14 16:50:00,
2013-06-14 11:55:00,81.6,67.3,29.86,South,182,1.0,7.0,62,0.00,,CLR,0.00,VWS V14.01,2013-06-14 16:55:00,
2013-06-14 12:00:00,81.8,68.0,29.86,SE,134,3.0,3.0,63,0.00,,CLR,0.00,VWS V14.01,2013-06-14 17:00:00,
2013-06-14 12:05:00,82.1,67.3,29.85,SSE,158,0.0,3.0,61,0.00,,CLR,0.00,VWS V14.01,2013-06-14 17:05:00,
2013-06-14 12:10:00,82.3,66.6,29.85,South,173,0.0,3.0,59,0.00,,CLR,0.00,VWS V14.01,2013-06-14 17:10:00,
2013-06-14 12:15:00,82.5,66.7,29.85,South,173,1.0,3.0,59,0.00,,CLR,0.00,VWS V14.01,2013-06-14 17:15:00,
2013-06-14 12:20:00,82.6,67.3,29.85,South,182,1.0,3.0,60,0.00,,CLR,0.00,VWS V14.01,2013-06-14 17:20:00,
2013-06-14 12:25:00,82.9,67.6,29.85,South,182,1.0,3.0,60,0.00,,CLR,0.00,VWS V14.01,2013-06-14 17:25:00,
2013-06-14 12:30:00,82.9,67.1,29.85,ESE,120,0.0,3.0,59,0.00,,OVC110,0.00,VWS V14.01,2013-06-14 17:30:00,
2013-06-14 12:31:00,83.0,67.2,29.85,SE,140,0.0,1.0,59,0.00,,CLR,0.00,VWS V14.01,2013-06-14 17:31:00,
2013-06-14 12:36:00,83.1,66.8,29.85,SW,234,0.0,1.0,58,0.00,,CLR,0.00,VWS V14.01,2013-06-14 17:36:00,
2013-06-14 12:41:00,83.4,66.6,29.85,North,10,3.0,4.0,57,0.00,,CLR,0.00,VWS V14.01,2013-06-14 17:41:00,
2013-06-14 12:46:00,83.6,68.7,29.85,SE,126,0.0,4.0,61,0.00,,CLR,0.00,VWS V14.01,2013-06-14 17:46:00,
2013-06-14 12:51:00,84.1,68.2,29.85,SSE,165,0.0,4.0,59,0.00,,FEW034,0.00,VWS V14.01,2013-06-14 17:51:00,
2013-06-14 12:56:00,84.4,67.5,29.85,East,90,0.0,4.0,57,0.00,,FEW034,0.00,VWS V14.01,2013-06-14 17:56:00,
2013-06-14 13:00:00,84.3,68.4,29.85,ESE,103,1.0,4.0,59,0.00,,OVC110,0.00,VWS V14.01,2013-06-14 18:00:00,
2013-06-14 13:01:00,84.3,67.9,29.85,ESE,122,0.0,3.0,58,0.00,,FEW034,0.00,VWS V14.01,2013-06-14 18:01:00,
2013-06-14 13:06:00,84.2,67.3,29.85,ESE,106,0.0,4.0,57,0.00,,FEW034,0.00,VWS V14.01,2013-06-14 18:06:00,
2013-06-14 13:11:00,84.2,67.8,29.85,NNE,33,0.0,4.0,58,0.00,,FEW034,0.00,VWS V14.01,2013-06-14 18:11:00,
2013-06-14 13:16:00,84.4,68.0,29.85,South,171,0.0,5.0,58,0.00,,FEW034,0.00,VWS V14.01,2013-06-14 18:16:00,
2013-06-14 13:21:00,84.8,67.9,29.85,ESE,103,1.0,5.0,57,0.00,,FEW034,0.00,VWS V14.01,2013-06-14 18:21:00,
2013-06-14 13:26:00,85.1,68.7,29.85,NE,34,1.0,5.0,58,0.00,,FEW034,0.00,VWS V14.01,2013-06-14 18:26:00,
2013-06-14 13:30:00,85.3,67.8,29.85,NW,304,1.0,5.0,56,0.00,,OVC110,0.00,VWS V14.01,2013-06-14 18:30:00,
2013-06-14 13:31:00,85.3,67.8,29.85,SW,219,0.0,1.0,56,0.00,,FEW034,0.00,VWS V14.01,2013-06-14 18:31:00,
2013-06-14 13:36:00,85.4,69.4,29.85,ESE,113,0.0,2.0,59,0.00,,FEW034,0.00,VWS V14.01,2013-06-14 18:36:00,
2013-06-14 13:41:00,85.5,70.0,29.84,ESE,122,0.0,2.0,60,0.00,,FEW034,0.00,VWS V14.01,2013-06-14 18:41:00,
2013-06-14 13:47:00,85.7,67.2,29.84,ESE,123,1.0,4.0,54,0.00,,FEW034,0.00,VWS V14.01,2013-06-14 18:47:00,
2013-06-14 13:52:00,85.6,66.5,29.84,South,169,0.0,4.0,53,0.00,,CLR,0.00,VWS V14.01,2013-06-14 18:52:00,
2013-06-14 13:57:00,85.2,66.7,29.84,SSE,161,0.0,4.0,54,0.00,,CLR,0.00,VWS V14.01,2013-06-14 18:57:00,
2013-06-14 14:00:00,85.1,66.6,29.84,SE,125,1.0,4.0,54,0.00,,OVC110,0.00,VWS V14.01,2013-06-14 19:00:00,
2013-06-14 14:02:00,85.1,67.1,29.84,ESE,103,0.0,3.0,55,0.00,,CLR,0.00,VWS V14.01,2013-06-14 19:02:00,
2013-06-14 14:07:00,85.0,68.6,29.83,SW,233,0.0,3.0,58,0.00,,CLR,0.00,VWS V14.01,2013-06-14 19:07:00,
2013-06-14 14:12:00,84.8,67.4,29.83,NNE,13,0.0,3.0,56,0.00,,CLR,0.00,VWS V14.01,2013-06-14 19:12:00,
2013-06-14 14:17:00,84.9,68.5,29.83,WSW,246,0.0,3.0,58,0.00,,CLR,0.00,VWS V14.01,2013-06-14 19:17:00,
2013-06-14 14:22:00,85.0,67.0,29.83,South,185,0.0,3.0,55,0.00,,CLR,0.00,VWS V14.01,2013-06-14 19:22:00,
2013-06-14 14:27:00,85.0,68.6,29.82,South,189,0.0,3.0,58,0.00,,CLR,0.00,VWS V14.01,2013-06-14 19:27:00,
2013-06-14 14:30:00,85.0,66.5,29.82,South,189,0.0,3.0,54,0.00,,OVC110,0.00,VWS V14.01,2013-06-14 19:30:00,
2013-06-14 14:32:00,85.0,68.6,29.82,South,179,0.0,3.0,58,0.00,,CLR,0.00,VWS V14.01,2013-06-14 19:32:00,
2013-06-14 14:37:00,85.0,67.6,29.82,SSE,147,1.0,3.0,56,0.00,,CLR,0.00,VWS V14.01,2013-06-14 19:37:00,
2013-06-14 14:42:00,85.2,67.2,29.82,SSE,164,0.0,3.0,55,0.00,,CLR,0.00,VWS V14.01,2013-06-14 19:42:00,
2013-06-14 14:47:00,85.3,66.8,29.82,SSW,202,0.0,3.0,54,0.00,,CLR,0.00,VWS V14.01,2013-06-14 19:47:00,
2013-06-14 14:53:00,85.4,66.9,29.82,South,169,1.0,3.0,54,0.00,,CLR,0.00,VWS V14.01,2013-06-14 19:53:00,
2013-06-14 14:58:00,85.3,66.8,29.82,South,172,0.0,3.0,54,0.00,,CLR,0.00,VWS V14.01,2013-06-14 19:58:00,
2013-06-14 15:00:00,85.3,67.3,29.82,South,172,0.0,3.0,55,0.00,,OVC110,0.00,VWS V14.01,2013-06-14 20:00:00,
2013-06-14 15:03:00,85.3,66.8,29.82,WSW,240,0.0,1.0,54,0.00,,CLR,0.00,VWS V14.01,2013-06-14 20:03:00,
2013-06-14 15:08:00,85.2,67.8,29.82,South,191,0.0,1.0,56,0.00,,CLR,0.00,VWS V14.01,2013-06-14 20:08:00,
2013-06-14 15:13:00,85.2,66.7,29.82,South,171,1.0,3.0,54,0.00,,CLR,0.00,VWS V14.01,2013-06-14 20:13:00,
2013-06-14 15:18:00,85.1,67.1,29.82,NE,40,0.0,3.0,55,0.00,,CLR,0.00,VWS V14.01,2013-06-14 20:18:00,
2013-06-14 15:23:00,85.2,67.2,29.82,SSE,150,0.0,3.0,55,0.00,,CLR,0.00,VWS V14.01,2013-06-14 20:23:00,
2013-06-14 15:28:00,85.3,66.2,29.81,SSE,153,0.0,3.0,53,0.00,,CLR,0.00,VWS V14.01,2013-06-14 20:28:00,
2013-06-14 15:30:00,85.4,66.9,29.81,SSE,153,2.0,3.0,54,0.00,,OVC110,0.00,VWS V14.01,2013-06-14 20:30:00,
2013-06-14 15:33:00,85.5,67.0,29.81,SSE,153,0.0,2.0,54,0.00,,CLR,0.00,VWS V14.01,2013-06-14 20:33:00,
2013-06-14 15:38:00,85.6,67.6,29.81,SE,134,0.0,4.0,55,0.00,,CLR,0.00,VWS V14.01,2013-06-14 20:38:00,
2013-06-14 15:43:00,85.6,67.6,29.81,East,82,0.0,5.0,55,0.00,,CLR,0.00,VWS V14.01,2013-06-14 20:43:00,
2013-06-14 15:48:00,85.6,67.6,29.81,ESE,111,1.0,5.0,55,0.00,,CLR,0.00,VWS V14.01,2013-06-14 20:48:00,
2013-06-14 15:54:00,85.5,68.0,29.81,SE,136,0.0,5.0,56,0.00,,CLR,0.00,VWS V14.01,2013-06-14 20:54:00,
2013-06-14 15:59:00,85.5,68.5,29.81,ESE,115,1.0,5.0,57,0.00,,CLR,0.00,VWS V14.01,2013-06-14 20:59:00,
2013-06-14 16:00:00,85.5,69.1,29.81,ESE,122,1.0,5.0,58,0.00,,OVC110,0.00,VWS V14.01,2013-06-14 21:00:00,
2013-06-14 16:04:00,85.4,66.9,29.80,East,84,0.0,2.0,54,0.00,,CLR,0.00,VWS V14.01,2013-06-14 21:04:00,
2013-06-14 16:09:00,85.4,67.9,29.80,SSE,163,1.0,2.0,56,0.00,,CLR,0.00,VWS V14.01,2013-06-14 21:09:00,
2013-06-14 16:14:00,85.4,69.0,29.80,SE,124,1.0,2.0,58,0.00,,CLR,0.00,VWS V14.01,2013-06-14 21:14:00,
2013-06-14 16:19:00,85.3,68.3,29.80,SE,131,2.0,4.0,57,0.00,,CLR,0.00,VWS V14.01,2013-06-14 21:19:00,
2013-06-14 16:24:00,85.2,67.8,29.80,SSE,166,0.0,4.0,56,0.00,,CLR,0.00,VWS V14.01,2013-06-14 21:24:00,
2013-06-14 16:29:00,85.3,67.3,29.80,SSE,153,2.0,4.0,55,0.00,,CLR,0.00,VWS V14.01,2013-06-14 21:29:00,
2013-06-14 16:30:00,85.2,67.2,29.80,ESE,119,0.0,4.0,55,0.00,,OVC110,0.00,VWS V14.01,2013-06-14 21:30:00,
2013-06-14 16:34:00,85.2,67.2,29.80,SSE,166,0.0,4.0,55,0.00,,CLR,0.00,VWS V14.01,2013-06-14 21:34:00,
2013-06-14 16:39:00,85.1,67.1,29.79,NE,39,3.0,5.0,55,0.00,,CLR,0.00,VWS V14.01,2013-06-14 21:39:00,
2013-06-14 16:44:00,85.1,68.2,29.79,ESE,121,0.0,5.0,57,0.00,,CLR,0.00,VWS V14.01,2013-06-14 21:44:00,
2013-06-14 16:49:00,85.2,67.8,29.79,ESE,119,0.0,5.0,56,0.00,,CLR,0.00,VWS V14.01,2013-06-14 21:49:00,
2013-06-14 16:54:00,85.1,67.1,29.80,East,93,3.0,7.0,55,0.00,,CLR,0.00,VWS V14.01,2013-06-14 21:54:00,
2013-06-14 16:59:00,85.1,67.1,29.80,ESE,121,4.0,4.0,55,0.00,,CLR,0.00,VWS V14.01,2013-06-14 21:59:00,
2013-06-14 17:00:00,85.1,66.6,29.80,ESE,116,4.0,7.0,54,0.00,,OVC110,0.00,VWS V14.01,2013-06-14 22:00:00,
2013-06-14 17:05:00,85.0,67.0,29.80,SE,131,0.0,5.0,55,0.00,,CLR,0.00,VWS V14.01,2013-06-14 22:05:00,
2013-06-14 17:10:00,85.0,67.0,29.80,South,182,1.0,5.0,55,0.00,,CLR,0.00,VWS V14.01,2013-06-14 22:10:00,
2013-06-14 17:15:00,85.0,66.5,29.80,SSE,155,0.0,5.0,54,0.00,,CLR,0.00,VWS V14.01,2013-06-14 22:15:00,
2013-06-14 17:20:00,84.9,65.9,29.79,ESE,123,0.0,5.0,53,0.00,,CLR,0.00,VWS V14.01,2013-06-14 22:20:00,
2013-06-14 17:25:00,84.8,66.3,29.79,SE,140,0.0,5.0,54,0.00,,CLR,0.00,VWS V14.01,2013-06-14 22:25:00,
2013-06-14 17:30:00,84.7,66.2,29.79,East,98,0.0,3.0,54,0.00,,CLR,0.00,VWS V14.01,2013-06-14 22:30:00,
2013-06-14 17:35:00,84.7,65.7,29.79,ESE,110,1.0,4.0,53,0.00,,CLR,0.00,VWS V14.01,2013-06-14 22:35:00,
2013-06-14 17:40:00,84.7,66.2,29.79,East,98,1.0,4.0,54,0.00,,CLR,0.00,VWS V14.01,2013-06-14 22:40:00,
2013-06-14 17:45:00,84.5,66.1,29.79,East,88,2.0,4.0,54,0.00,,CLR,0.00,VWS V14.01,2013-06-14 22:45:00,
2013-06-14 17:50:00,84.4,66.5,29.78,SE,134,2.0,4.0,55,0.00,,CLR,0.00,VWS V14.01,2013-06-14 22:50:00,
2013-06-14 17:55:00,84.3,66.4,29.78,ESE,111,3.0,4.0,55,0.00,,CLR,0.00,VWS V14.01,2013-06-14 22:55:00,
2013-06-14 18:00:00,84.3,66.9,29.78,ESE,121,1.0,1.0,56,0.00,,CLR,0.00,VWS V14.01,2013-06-14 23:00:00,
2013-06-14 18:06:00,84.3,67.4,29.78,ESE,114,1.0,3.0,57,0.00,,CLR,0.00,VWS V14.01,2013-06-14 23:06:00,
2013-06-14 18:11:00,84.2,66.8,29.78,SSE,163,0.0,3.0,56,0.00,,CLR,0.00,VWS V14.01,2013-06-14 23:11:00,
2013-06-14 18:16:00,84.0,66.6,29.78,SSE,165,0.0,3.0,56,0.00,,CLR,0.00,VWS V14.01,2013-06-14 23:16:00,
2013-06-14 18:21:00,83.9,66.5,29.78,SSE,161,2.0,4.0,56,0.00,,CLR,0.00,VWS V14.01,2013-06-14 23:21:00,
2013-06-14 18:26:00,83.7,66.9,29.78,ESE,106,1.0,7.0,57,0.00,,CLR,0.00,VWS V14.01,2013-06-14 23:26:00,
2013-06-14 18:30:00,83.6,66.8,29.78,ESE,104,4.0,7.0,57,0.00,,OVC110,0.00,VWS V14.01,2013-06-14 23:30:00,
2013-06-14 18:31:00,83.6,66.8,29.78,ESE,123,0.0,5.0,57,0.00,,CLR,0.00,VWS V14.01,2013-06-14 23:31:00,
2013-06-14 18:36:00,83.5,67.7,29.78,South,169,2.0,5.0,59,0.00,,CLR,0.00,VWS V14.01,2013-06-14 23:36:00,
2013-06-14 18:41:00,83.4,67.6,29.78,SE,134,5.0,5.0,59,0.00,,CLR,0.00,VWS V14.01,2013-06-14 23:41:00,
2013-06-14 18:46:00,83.2,67.4,29.78,SSE,151,1.0,5.0,59,0.00,,CLR,0.00,VWS V14.01,2013-06-14 23:46:00,
2013-06-14 18:51:00,83.1,67.8,29.78,SSW,199,1.0,5.0,60,0.00,,CLR,0.00,VWS V14.01,2013-06-14 23:51:00,
2013-06-14 18:56:00,82.9,67.1,29.79,South,170,0.0,5.0,59,0.00,,CLR,0.00,VWS V14.01,2013-06-14 23:56:00,
2013-06-14 19:00:00,82.8,67.0,29.79,South,171,0.0,5.0,59,0.00,,OVC110,0.00,VWS V14.01,2013-06-15 00:00:00,
2013-06-14 19:01:00,82.7,66.9,29.78,SSW,197,2.0,2.0,59,0.00,,CLR,0.00,VWS V14.01,2013-06-15 00:01:00,
2013-06-14 19:07:00,82.5,67.2,29.78,SSE,150,0.0,3.0,60,0.00,,CLR,0.00,VWS V14.01,2013-06-15 00:07:00,
2013-06-14 19:12:00,82.4,67.1,29.79,ESE,108,2.0,5.0,60,0.00,,CLR,0.00,VWS V14.01,2013-06-15 00:12:00,
2013-06-14 19:17:00,82.2,66.9,29.78,SE,146,0.0,5.0,60,0.00,,CLR,0.00,VWS V14.01,2013-06-15 00:17:00,
2013-06-14 19:22:00,82.1,67.3,29.79,SE,128,0.0,5.0,61,0.00,,CLR,0.00,VWS V14.01,2013-06-15 00:22:00,
2013-06-14 19:27:00,81.9,67.1,29.79,SE,125,0.0,5.0,61,0.00,,CLR,0.00,VWS V14.01,2013-06-15 00:27:00,
2013-06-14 19:30:00,81.8,67.5,29.79,SSE,149,0.0,5.0,62,0.00,,OVC110,0.00,VWS V14.01,2013-06-15 00:30:00,
2013-06-14 19:32:00,81.7,67.4,29.79,SE,128,0.0,1.0,62,0.00,,CLR,0.00,VWS V14.01,2013-06-15 00:32:00,
2013-06-14 19:37:00,81.5,67.2,29.78,ESE,117,0.0,4.0,62,0.00,,CLR,0.00,VWS V14.01,2013-06-15 00:37:00,
2013-06-14 19:42:00,81.2,67.4,29.78,SSE,151,0.0,5.0,63,0.00,,CLR,0.00,VWS V14.01,2013-06-15 00:42:00,
2013-06-14 19:47:00,81.1,67.3,29.78,SE,128,1.0,5.0,63,0.00,,CLR,0.00,VWS V14.01,2013-06-15 00:47:00,
2013-06-14 19:52:00,80.8,67.0,29.78,SSE,150,0.0,5.0,63,0.00,,CLR,0.00,VWS V14.01,2013-06-15 00:52:00,
2013-06-14 19:57:00,80.6,67.3,29.78,SSE,159,0.0,5.0,64,0.00,,CLR,0.00,VWS V14.01,2013-06-15 00:57:00,
2013-06-14 20:00:00,80.5,67.2,29.78,ESE,120,1.0,5.0,64,0.00,,OVC110,0.00,VWS V14.01,2013-06-15 01:00:00,
2013-06-14 20:02:00,80.4,67.1,29.78,ESE,117,1.0,1.0,64,0.00,,CLR,0.00,VWS V14.01,2013-06-15 01:02:00,
2013-06-14 20:07:00,80.2,66.9,29.78,ESE,116,0.0,2.0,64,0.00,,CLR,0.00,VWS V14.01,2013-06-15 01:07:00,
2013-06-14 20:13:00,80.0,66.7,29.78,SSE,149,1.0,2.0,64,0.00,,CLR,0.00,VWS V14.01,2013-06-15 01:13:00,
2013-06-14 20:18:00,79.8,66.6,29.78,ESE,105,0.0,2.0,64,0.00,,CLR,0.00,VWS V14.01,2013-06-15 01:18:00,
2013-06-14 20:23:00,79.6,66.4,29.78,ESE,113,0.0,2.0,64,0.00,,CLR,0.00,VWS V14.01,2013-06-15 01:23:00,
2013-06-14 20:28:00,79.4,66.6,29.78,ESE,111,0.0,2.0,65,0.00,,CLR,0.00,VWS V14.01,2013-06-15 01:28:00,
2013-06-14 20:30:00,79.4,66.6,29.78,East,98,0.0,2.0,65,0.00,,OVC110,0.00,VWS V14.01,2013-06-15 01:30:00,
2013-06-14 20:33:00,79.2,66.4,29.79,East,98,0.0,0.0,65,0.00,,CLR,0.00,VWS V14.01,2013-06-15 01:33:00,
2013-06-14 20:38:00,79.0,66.2,29.79,SSE,148,0.0,1.0,65,0.00,,CLR,0.00,VWS V14.01,2013-06-15 01:38:00,
2013-06-14 20:43:00,78.8,66.9,29.80,SSE,148,0.0,2.0,67,0.00,,CLR,0.00,VWS V14.01,2013-06-15 01:43:00,
2013-06-14 20:48:00,78.5,66.6,29.80,SSE,148,0.0,2.0,67,0.00,,CLR,0.00,VWS V14.01,2013-06-15 01:48:00,
2013-06-14 20:53:00,78.3,66.4,29.80,SE,134,0.0,2.0,67,0.00,,CLR,0.00,VWS V14.01,2013-06-15 01:53:00,
2013-06-14 20:58:00,78.1,66.7,29.80,ESE,117,1.0,2.0,68,0.00,,CLR,0.00,VWS V14.01,2013-06-15 01:58:00,
2013-06-14 21:00:00,78.0,66.6,29.80,ESE,117,0.0,2.0,68,0.00,,OVC110,0.00,VWS V14.01,2013-06-15 02:00:00,
2013-06-14 21:03:00,77.8,66.8,29.80,ESE,118,1.0,1.0,69,0.00,,CLR,0.00,VWS V14.01,2013-06-15 02:03:00,
2013-06-14 21:08:00,77.6,66.6,29.80,ESE,116,0.0,2.0,69,0.00,,CLR,0.00,VWS V14.01,2013-06-15 02:08:00,
2013-06-14 21:14:00,77.3,66.8,29.80,South,189,0.0,2.0,70,0.00,,CLR,0.00,VWS V14.01,2013-06-15 02:14:00,
2013-06-14 21:19:00,77.1,67.0,29.81,ESE,105,0.0,2.0,71,0.00,,CLR,0.00,VWS V14.01,2013-06-15 02:19:00,
2013-06-14 21:24:00,76.9,66.8,29.81,SE,126,0.0,2.0,71,0.00,,CLR,0.00,VWS V14.01,2013-06-15 02:24:00,
2013-06-14 21:29:00,76.7,66.6,29.81,SE,144,1.0,3.0,71,0.00,,CLR,0.00,VWS V14.01,2013-06-15 02:29:00,
2013-06-14 21:30:00,76.7,66.6,29.81,SE,144,0.0,3.0,71,0.00,,OVC110,0.00,VWS V14.01,2013-06-15 02:30:00,
2013-06-14 21:34:00,76.6,66.5,29.81,SSE,157,0.0,1.0,71,0.00,,CLR,0.00,VWS V14.01,2013-06-15 02:34:00,
2013-06-14 21:39:00,76.4,66.7,29.81,ESE,121,0.0,1.0,72,0.00,,CLR,0.00,VWS V14.01,2013-06-15 02:39:00,
2013-06-14 21:44:00,76.3,66.6,29.82,ESE,108,0.0,2.0,72,0.00,,CLR,0.00,VWS V14.01,2013-06-15 02:44:00,
2013-06-14 21:49:00,76.2,66.5,29.82,SE,144,0.0,2.0,72,0.00,,CLR,0.00,VWS V14.01,2013-06-15 02:49:00,
2013-06-14 21:54:00,76.0,66.3,29.82,SE,136,1.0,2.0,72,0.00,,CLR,0.00,VWS V14.01,2013-06-15 02:54:00,
2013-06-14 21:59:00,75.8,66.5,29.82,ESE,108,1.0,2.0,73,0.00,,CLR,0.00,VWS V14.01,2013-06-15 02:59:00,
2013-06-14 22:00:00,75.8,66.5,29.82,ESE,108,0.0,2.0,73,0.00,,OVC110,0.00,VWS V14.01,2013-06-15 03:00:00,
2013-06-14 22:04:00,75.7,66.4,29.83,ESE,108,0.0,1.0,73,0.00,,CLR,0.00,VWS V14.01,2013-06-15 03:04:00,
2013-06-14 22:09:00,75.5,66.2,29.83,ESE,108,0.0,1.0,73,0.00,,CLR,0.00,VWS V14.01,2013-06-15 03:09:00,
2013-06-14 22:14:00,75.3,66.4,29.83,ESE,123,0.0,1.0,74,0.00,,CLR,0.00,VWS V14.01,2013-06-15 03:14:00,
2013-06-14 22:20:00,75.1,66.2,29.83,ESE,123,0.0,1.0,74,0.00,,CLR,0.00,VWS V14.01,2013-06-15 03:20:00,
2013-06-14 22:25:00,75.0,66.2,29.83,ESE,123,0.0,1.0,74,0.00,,CLR,0.00,VWS V14.01,2013-06-15 03:25:00,
2013-06-14 22:30:00,74.8,66.3,29.83,ESE,123,0.0,0.0,75,0.00,,CLR,0.00,VWS V14.01,2013-06-15 03:30:00,
2013-06-14 22:35:00,74.7,66.3,29.83,ESE,123,0.0,0.0,75,0.00,,CLR,0.00,VWS V14.01,2013-06-15 03:35:00,
2013-06-14 22:40:00,74.5,66.1,29.83,ESE,123,0.0,0.0,75,0.00,,CLR,0.00,VWS V14.01,2013-06-15 03:40:00,
2013-06-14 22:45:00,74.3,66.2,29.83,ESE,123,0.0,0.0,76,0.00,,CLR,0.00,VWS V14.01,2013-06-15 03:45:00,
2013-06-14 22:50:00,74.2,66.2,29.83,ESE,123,0.0,0.0,76,0.00,,CLR,0.00,VWS V14.01,2013-06-15 03:50:00,
2013-06-14 22:55:00,74.0,66.0,29.83,ESE,123,0.0,0.0,76,0.00,,CLR,0.00,VWS V14.01,2013-06-15 03:55:00,
2013-06-14 23:00:00,73.9,65.9,29.83,ESE,123,0.0,0.0,76,0.00,,CLR,0.00,VWS V14.01,2013-06-15 04:00:00,
2013-06-14 23:01:00,73.9,65.9,29.83,ESE,123,0.0,0.0,76,0.00,,CLR,0.00,VWS V14.01,2013-06-15 04:01:00,
2013-06-14 23:02:00,73.9,65.9,29.83,ESE,123,0.0,0.0,76,0.00,,CLR,0.00,VWS V14.01,2013-06-15 04:02:00,
2013-06-14 23:03:00,73.8,65.8,29.83,ESE,123,0.0,0.0,76,0.00,,CLR,0.00,VWS V14.01,2013-06-15 04:03:00,
2013-06-14 23:09:00,73.7,65.3,29.83,East,97,0.0,0.0,75,0.00,,CLR,0.00,VWS V14.01,2013-06-15 04:09:00,
2013-06-14 23:14:00,73.8,65.4,29.83,ESE,102,0.0,0.0,75,0.00,,CLR,0.00,VWS V14.01,2013-06-15 04:14:00,
2013-06-14 23:19:00,73.8,65.4,29.84,ESE,102,0.0,0.0,75,0.00,,CLR,0.00,VWS V14.01,2013-06-15 04:19:00,
2013-06-14 23:24:00,73.7,65.3,29.84,ESE,102,0.0,0.0,75,0.00,,CLR,0.00,VWS V14.01,2013-06-15 04:24:00,
2013-06-14 23:29:00,73.5,65.5,29.84,ESE,102,0.0,0.0,76,0.00,,CLR,0.00,VWS V14.01,2013-06-15 04:29:00,
2013-06-14 23:30:00,73.5,65.5,29.84,ESE,102,0.0,0.0,76,0.00,,OVC110,0.00,VWS V14.01,2013-06-15 04:30:00,
2013-06-14 23:34:00,73.3,65.3,29.84,ESE,102,0.0,0.0,76,0.00,,CLR,0.00,VWS V14.01,2013-06-15 04:34:00,
2013-06-14 23:39:00,73.1,65.1,29.84,ESE,102,0.0,0.0,76,0.00,,CLR,0.00,VWS V14.01,2013-06-15 04:39:00,
2013-06-14 23:44:00,73.0,64.6,29.84,ESE,102,0.0,0.0,75,0.00,,CLR,0.00,VWS V14.01,2013-06-15 04:44:00,
2013-06-14 23:49:00,72.9,64.5,29.84,ESE,102,0.0,0.0,75,0.00,,CLR,0.00,VWS V14.01,2013-06-15 04:49:00,
2013-06-14 23:54:00,72.9,64.5,29.84,ESE,102,0.0,0.0,75,0.00,,CLR,0.00,VWS V14.01,2013-06-15 04:54:00,
2013-06-14 23:59:00,72.7,64.3,29.84,ESE,102,0.0,0.0,75,0.00,,CLR,0.00,VWS V14.01,2013-06-15 04:59:00,